Project,Study,Ord_Occ,Event_Num,Cast_ID,Date_Time_UTC,Date_Time_PST,Lat_Dec,Lon_Dec,Sta_ID,Line,Sta,Depth,Pressure,PrQ,Temp1,Temp1Q,Temp2,Temp2Q,TempAve,Salt1,Salt1Q,Salt1_Corr,Salt2,Salt2Q,Salt2_Corr,SaltAve_Corr,Ox1,Ox1Q,Ox1_CruiseCorr,Ox1_StaCorr,Ox2,Ox2Q,Ox2_CruiseCorr,Ox2_StaCorr,OxAve_StaCorr,Ox1uM,Ox1uM_CruiseCorr,Ox1uM_StaCorr,Ox2uM,Ox2uM_CruiseCorr,Ox2uM_StaCorr,OxAveuM_StaCorr,FluorV,FluorQ,EstChl_CruiseCorr,EstChl_StaCorr,ISUSV,ISUSQ,EstNO3_CruiseCorr,EstNO3_StaCorr,SigThetaTS1,SigThetaTS1Q,SigThetaTS2,SigThetaTS2Q,BAT,XMiss,TransQ,pH,pHQ,SPAR,SPARQ,PAR,PARQ,PoT1,PoT2,DynHt,SVA,OxSat1,OxSat2,BTL_Depth,BTL_Temp,SaltB,OxB,OxBuM,Chl-a,Phaeo,NO3,NO2,NH4,PO4,SIL
CalCOFI,2007SR,071,,2007_071d,26-Jul-2020 22:54:09,26-Jul-2020 14:54:09,34.27542,-120.02522,081.8 046.9,081.8,046.9,2.000,2.014,,14.5263,,14.4795,,14.5029,33.7177,,33.7179,33.7183,,33.7199,33.7189,6.4008,,6.6705,6.5866,4.6834,,7.2395,4.5143,5.5505,278.866,290.6201,286.3215,204.040,516.5216,186.2396,236.2806,0.4320,,4.6951,5.5593,-99.0,,-99.0,-99.0,25.0855,,25.0959,,1.6783,65.7322,,8.259,,2.0734E+03,,6.7548E+01,,14.5260,14.4792,0.0008,,110.508,80.781,1,14.944,33.7243,,,7.895,0.282,0.0,0.033,0.00,0.17,5.54
CalCOFI,2007SR,071,,2007_071d,26-Jul-2020 22:54:19,26-Jul-2020 14:54:19,34.27542,-120.02522,081.8 046.9,081.8,046.9,3.000,3.022,,14.3494,,14.3366,,14.3430,33.7153,,33.7155,33.7163,,33.7179,33.7167,6.2938,,6.5587,6.4763,4.7032,,7.2867,4.5466,5.5115,274.194,285.7430,281.5175,204.897,505.0946,187.5463,234.5319,0.5078,,5.6049,6.2613,-99.0,,-99.0,-99.0,25.1211,,25.1246,,1.6442,66.2953,,8.244,,2.0723E+03,,5.0387E+01,,14.3490,14.3362,0.0046,,108.272,80.889,,,,,,,,,,,,
CalCOFI,2007SR,071,,2007_071d,26-Jul-2020 22:54:22,26-Jul-2020 14:54:22,34.27542,-120.02522,081.8 046.9,081.8,046.9,4.000,4.029,,14.3570,,14.3570,,14.3570,33.7163,,33.7165,33.7183,,33.7199,33.7182,6.2468,,6.5096,6.4278,4.7018,,7.2834,4.5443,5.4861,272.147,283.6062,279.4126,204.835,500.0879,187.4517,233.4322,0.5522,,6.1394,6.6199,-99.0,,-99.0,-99.0,25.1204,,25.1219,,1.6409,66.3502,,8.246,,2.0757E+03,,3.6876E+01,,14.3564,14.3564,0.0075,,107.481,80.898,,,,,,,,,,,,
CalCOFI,2007SR,071,,2007_071d,26-Jul-2020 22:54:24,26-Jul-2020 14:54:24,34.27542,-120.02522,081.8 046.9,081.8,046.9,5.000,5.036,,14.3145,,14.3035,,14.3090,33.7146,,33.7148,33.7149,,33.7165,33.7157,6.2685,,6.5323,6.4502,4.7069,,7.2956,4.5527,5.5015,273.089,284.5895,280.3813,205.058,502.3919,187.7917,234.0865,0.6804,,7.6896,7.4371,-99.0,,-99.0,-99.0,25.1280,,25.1306,,1.6365,66.4242,,8.244,,2.0745E+03,,2.5759E+01,,14.3137,14.3028,0.0103,,107.760,80.898,,,,,,,,,,,,
CalCOFI,2007SR,071,,2007_071d,26-Jul-2020 22:54:26,26-Jul-2020 14:54:26,34.27542,-120.02522,081.8 046.9,081.8,046.9,6.000,6.043,,14.3041,,14.2847,,14.2944,33.7160,,33.7162,33.7158,,33.7174,33.7168,6.2750,,6.5390,6.4569,4.7049,,7.2908,4.5494,5.5032,273.371,284.8839,280.6712,204.967,503.0816,187.6530,234.1621,0.7057,,7.9967,7.5601,-99.0,,-99.0,-99.0,25.1314,,25.1354,,1.6165,66.7564,,8.247,,2.0739E+03,,1.7042E+01,,14.3032,14.2838,0.0132,,107.850,80.832,,,,,,,,,,,,
CalCOFI,2007SR,071,,2007_071d,26-Jul-2020 22:54:28,26-Jul-2020 14:54:28,34.27542,-120.02522,081.8 046.9,081.8,046.9,7.000,7.051,,14.3328,,14.3080,,14.3204,33.7163,,33.7165,33.7182,,33.7198,33.7182,6.3070,,6.5725,6.4899,4.6998,,7.2786,4.5411,5.5155,274.767,286.3412,282.1067,204.749,506.4961,187.3206,234.7137,0.6620,,7.4665,7.3397,-99.0,,-99.0,-99.0,25.1256,,25.1323,,1.6205,66.6914,,8.248,,2.0749E+03,,1.1366E+01,,14.3318,14.3070,0.0160,,108.464,80.785,,,,,,,,,,,,
CalCOFI,2007SR,071,,2007_071d,26-Jul-2020 22:54:30,26-Jul-2020 14:54:30,34.27542,-120.02522,081.8 046.9,081.8,046.9,8.000,8.058,,14.3649,,14.3893,,14.3771,33.7210,,33.7212,33.7225,,33.7241,33.7227,6.3721,,6.6405,6.5570,4.6912,,7.2581,4.5270,5.5420,277.604,289.3027,285.0238,204.377,513.4350,186.7534,235.8886,0.6440,,7.2485,7.2380,-99.0,,-99.0,-99.0,25.1224,,25.1185,,1.6245,66.6229,,8.253,,2.0749E+03,,8.6304E+00,,14.3638,14.3881,0.0189,,109.656,80.771,,,,,,,,,,,,
CalCOFI,2007SR,071,,2007_071d,26-Jul-2020 22:54:32,26-Jul-2020 14:54:32,34.27542,-120.02522,081.8 046.9,081.8,046.9,9.000,9.065,,14.5136,,14.5256,,14.5196,33.7236,,33.7238,33.7268,,33.7284,33.7261,6.2920,,6.5568,6.4744,4.6832,,7.2390,4.5140,5.4942,274.122,285.6679,281.4435,204.032,504.9185,186.2274,233.8355,0.5848,,6.5327,6.8585,-99.0,,-99.0,-99.0,25.0929,,25.0928,,1.6415,66.3409,,8.255,,2.0729E+03,,6.2084E+00,,14.5123,14.5242,0.0218,,108.605,80.857,,,,,,,,,,,,
CalCOFI,2007SR,071,,2007_071d,26-Jul-2020 22:54:34,26-Jul-2020 14:54:34,34.27542,-120.02522,081.8 046.9,081.8,046.9,10.000,10.072,,14.4599,,14.4327,,14.4463,33.7139,,33.7141,33.7118,,33.7134,33.7138,6.3430,,6.6101,6.5270,4.6961,,7.2698,4.5350,5.5310,276.344,287.9874,283.7282,204.592,510.3532,187.0812,235.4047,0.7161,,8.1231,7.6070,-99.0,,-99.0,-99.0,25.0969,,25.1010,,1.6389,66.3840,,8.260,,2.0718E+03,,4.6063E+00,,14.4584,14.4312,0.0246,,109.361,80.920,10,14.766,33.7223,,,8.936,0.319,0.0,0.033,0.00,0.18,5.52
CalCOFI,2007SR,071,,2007_071d,26-Jul-2020 22:54:36,26-Jul-2020 14:54:36,34.27542,-120.02522,081.8 046.9,081.8,046.9,11.000,11.080,,14.4419,,14.4003,,14.4211,33.7194,,33.7196,33.7220,,33.7236,33.7216,6.2884,,6.5530,6.4707,4.7021,,7.2841,4.5448,5.5078,273.962,285.5008,281.2789,204.852,504.5271,187.4777,234.3783,0.6737,,7.6083,7.4024,-99.0,,-99.0,-99.0,25.1049,,25.1158,,1.6309,66.5163,,8.259,,2.0715E+03,,3.6036E+00,,14.4403,14.3987,0.0275,,108.383,80.976,,,,,,,,,,,,
CalCOFI,2007SR,071,,2007_071d,26-Jul-2020 22:54:38,26-Jul-2020 14:54:38,34.27542,-120.02522,081.8 046.9,081.8,046.9,12.000,12.087,,14.4467,,14.4448,,14.4458,33.7169,,33.7171,33.7185,,33.7201,33.7186,6.0724,,6.3274,6.2480,4.7095,,7.3018,4.5569,5.4025,264.553,275.6788,271.6040,205.177,481.5141,187.9732,229.7886,0.6679,,7.5380,7.3717,-99.0,,-99.0,-99.0,25.1021,,25.1037,,1.6351,66.4469,,8.248,,2.0716E+03,,3.0011E+00,,14.4450,14.4431,0.0304,,104.671,81.175,,,,,,,,,,,,
CalCOFI,2007SR,071,,2007_071d,26-Jul-2020 22:54:40,26-Jul-2020 14:54:40,34.27542,-120.02522,081.8 046.9,081.8,046.9,13.000,13.094,,14.3716,,14.3640,,14.3678,33.7162,,33.7164,33.7159,,33.7175,33.7170,5.6592,,5.8956,5.8220,4.7427,,7.3810,4.6111,5.2166,246.549,256.8844,253.0912,206.620,437.4789,190.1733,221.6323,0.7288,,8.2774,7.6613,-99.0,,-99.0,-99.0,25.1175,,25.1188,,1.6055,66.9411,,8.244,,2.0699E+03,,2.4377E+00,,14.3697,14.3621,0.0333,,97.400,81.613,,,,,,,,,,,,
CalCOFI,2007SR,071,,2007_071d,26-Jul-2020 22:54:42,26-Jul-2020 14:54:42,34.27542,-120.02522,081.8 046.9,081.8,046.9,14.000,14.101,,13.9423,,13.8868,,13.9146,33.6885,,33.6887,33.6781,,33.6797,33.6842,5.7110,,5.9497,5.8754,4.7737,,7.4551,4.6617,5.2686,248.788,259.2217,255.3934,207.957,442.9551,192.2118,223.8026,0.8187,,9.3731,7.9551,-99.0,,-99.0,-99.0,25.1856,,25.1891,,1.5747,67.4597,,8.226,,2.0714E+03,,1.9654E+00,,13.9403,13.8848,0.0361,,97.425,81.336,,,,,,,,,,,,
CalCOFI,2007SR,071,,2007_071d,26-Jul-2020 22:54:44,26-Jul-2020 14:54:44,34.27542,-120.02522,081.8 046.9,081.8,046.9,15.000,15.109,,13.8338,,13.7892,,13.8115,33.7113,,33.7115,33.7172,,33.7188,33.7152,5.5990,,5.8327,5.7599,4.7802,,7.4706,4.6723,5.2161,243.898,254.1170,250.3652,208.229,430.9949,192.6265,221.4959,0.7999,,9.1436,7.9069,-99.0,,-99.0,-99.0,25.2261,,25.2398,,1.5058,68.6309,,8.202,,2.0730E+03,,1.7178E+00,,13.8316,13.7871,0.0388,,95.316,81.307,,,,,,,,,,,,
CalCOFI,2007SR,071,,2007_071d,26-Jul-2020 22:54:46,26-Jul-2020 14:54:46,34.27542,-120.02522,081.8 046.9,081.8,046.9,16.000,16.116,,13.6722,,13.7366,,13.7044,33.7048,,33.7050,33.7051,,33.7067,33.7059,5.0525,,5.2617,5.1965,4.7902,,7.4944,4.6886,4.9426,220.084,229.2576,225.8782,208.665,372.7492,193.2913,209.5848,1.0287,,11.9516,8.0203,-99.0,,-99.0,-99.0,25.2543,,25.2414,,1.4132,70.2394,,8.149,,2.0726E+03,,1.4836E+00,,13.6699,13.7343,0.0416,,85.719,81.384,,,,,,,,,,,,
CalCOFI,2007SR,071,,2007_071d,26-Jul-2020 22:54:48,26-Jul-2020 14:54:48,34.27542,-120.02522,081.8 046.9,081.8,046.9,17.000,17.123,,13.3120,,13.2943,,13.3032,33.6839,,33.6841,33.6787,,33.6803,33.6822,4.8139,,5.0123,4.9505,4.8135,,7.5501,4.7267,4.8386,209.680,218.3969,215.1802,209.666,347.3025,194.8175,204.9989,0.7815,,8.9191,7.8529,-99.0,,-99.0,-99.0,25.3113,,25.3109,,1.2807,72.6070,,8.097,,2.0732E+03,,1.3152E+00,,13.3096,13.2920,0.0443,,81.070,81.031,,,,,,,,,,,,
CalCOFI,2007SR,071,,2007_071d,26-Jul-2020 22:54:50,26-Jul-2020 14:54:50,34.27542,-120.02522,081.8 046.9,081.8,046.9,18.000,18.131,,12.9441,,12.9277,,12.9359,33.6877,,33.6879,33.6877,,33.6893,33.6886,4.6969,,4.8901,4.8299,4.8203,,7.5663,4.7378,4.7839,204.570,213.0625,209.9257,209.945,334.8042,195.2429,202.5843,0.6082,,6.8154,7.0168,-99.0,,-99.0,-99.0,25.3879,,25.3911,,1.1355,75.2866,,8.073,,2.0716E+03,,1.2041E+00,,12.9417,12.9253,0.0469,,78.505,80.540,,,,,,,,,,,,
CalCOFI,2007SR,071,,2007_071d,26-Jul-2020 22:54:52,26-Jul-2020 14:54:52,34.27542,-120.02522,081.8 046.9,081.8,046.9,19.000,19.138,,12.7778,,12.7553,,12.7666,33.6932,,33.6934,33.6959,,33.6975,33.6955,4.6467,,4.8376,4.7781,4.7933,,7.5018,4.6937,4.7359,202.375,210.7712,207.6687,208.758,329.4355,193.4331,200.5509,0.5230,,5.7878,6.3885,-99.0,,-99.0,-99.0,25.4249,,25.4314,,1.0457,76.9959,,8.055,,2.0694E+03,,1.0889E+00,,12.7752,12.7528,0.0495,,77.401,79.807,,,,,,,,,,,,
CalCOFI,2007SR,071,,2007_071d,26-Jul-2020 22:54:54,26-Jul-2020 14:54:54,34.27542,-120.02522,081.8 046.9,081.8,046.9,20.000,20.145,,12.7354,,12.7271,,12.7313,33.6993,,33.6995,33.7020,,33.7036,33.7016,4.5479,,4.7344,4.6763,4.7561,,7.4130,4.6330,4.6547,198.072,206.2793,203.2441,207.137,318.9110,190.9616,197.1029,0.5794,,6.4675,6.8204,-99.0,,-99.0,-99.0,25.4380,,25.4417,,1.0207,77.4778,,8.050,,2.0727E+03,,1.0091E+00,,12.7327,12.7244,0.0521,,75.692,79.144,20,12.387,33.7118,4.522,197.37,3.501,0.982,10.37,0.115,0.00,1.01,13.19
CalCOFI,2007SR,071,,2007_071d,26-Jul-2020 22:54:56,26-Jul-2020 14:54:56,34.27542,-120.02522,081.8 046.9,081.8,046.9,21.000,21.152,,12.7028,,12.6922,,12.6975,33.7030,,33.7032,33.7053,,33.7069,33.7051,4.4956,,4.6798,4.6223,4.7059,,7.2932,4.5510,4.5867,195.790,203.8971,200.8976,204.951,313.3296,187.6286,194.2631,0.4527,,4.9432,5.7623,-99.0,,-99.0,-99.0,25.4473,,25.4511,,0.9996,77.8884,,8.046,,2.0735E+03,,9.5105E-01,,12.7000,12.6894,0.0546,,74.772,78.255,,,,,,,,,,,,
CalCOFI,2007SR,071,,2007_071d,26-Jul-2020 22:54:58,26-Jul-2020 14:54:58,34.27542,-120.02522,081.8 046.9,081.8,046.9,22.000,22.160,,12.6511,,12.6451,,12.6481,33.7051,,33.7053,33.7074,,33.7090,33.7072,4.4178,,4.5985,4.5421,4.6787,,7.2283,4.5066,4.5244,192.401,200.3593,197.4128,203.764,305.0405,185.8188,191.6158,0.4595,,5.0248,5.8271,-99.0,,-99.0,-99.0,25.4590,,25.4620,,0.9864,78.1452,,8.038,,2.0709E+03,,8.9915E-01,,12.6482,12.6421,0.0572,,73.401,77.727,,,,,,,,,,,,
CalCOFI,2007SR,071,,2007_071d,26-Jul-2020 22:55:00,26-Jul-2020 14:55:00,34.27542,-120.02522,081.8 046.9,081.8,046.9,23.000,23.167,,12.5844,,12.5656,,12.5750,33.7060,,33.7062,33.7075,,33.7091,33.7077,4.3215,,4.4978,4.4428,4.6427,,7.1423,4.4479,4.4454,188.203,195.9770,193.0962,202.192,294.7728,183.4220,188.2591,0.4181,,4.5286,5.4182,-99.0,,-99.0,-99.0,25.4727,,25.4775,,0.9635,78.5946,,8.027,,2.0707E+03,,8.4466E-01,,12.5814,12.5625,0.0597,,71.702,77.002,,,,,,,,,,,,
CalCOFI,2007SR,071,,2007_071d,26-Jul-2020 22:55:02,26-Jul-2020 14:55:02,34.27542,-120.02522,081.8 046.9,081.8,046.9,24.000,24.174,,12.5195,,12.5018,,12.5107,33.7087,,33.7089,33.7109,,33.7125,33.7107,4.2449,,4.4178,4.3639,4.6131,,7.0717,4.3996,4.3818,184.866,192.4935,189.6649,200.899,286.6110,181.4505,185.5577,0.3640,,3.8819,4.8330,-99.0,,-99.0,-99.0,25.4874,,25.4926,,0.9280,79.2947,,8.017,,2.0716E+03,,8.0105E-01,,12.5163,12.4987,0.0622,,70.338,76.411,,,,,,,,,,,,
CalCOFI,2007SR,071,,2007_071d,26-Jul-2020 22:55:04,26-Jul-2020 14:55:04,34.27542,-120.02522,081.8 046.9,081.8,046.9,25.000,25.182,,12.4689,,12.4569,,12.4629,33.7100,,33.7102,33.7110,,33.7126,33.7114,3.8168,,3.9705,3.9225,4.6164,,7.0795,4.4049,4.1637,166.222,173.0310,170.4939,201.043,241.0104,181.6701,176.0820,0.3174,,3.3262,4.2826,-99.0,,-99.0,-99.0,25.4983,,25.5014,,0.9113,79.6260,,8.010,,2.0733E+03,,7.6318E-01,,12.4656,12.4536,0.0647,,63.179,76.395,,,,,,,,,,,,
CalCOFI,2007SR,071,,2007_071d,26-Jul-2020 22:55:06,26-Jul-2020 14:55:06,34.27542,-120.02522,081.8 046.9,081.8,046.9,26.000,26.189,,12.1969,,12.1071,,12.1520,33.6959,,33.6961,33.6942,,33.6958,33.6960,3.3925,,3.5271,3.4851,4.6200,,7.0881,4.4108,3.9480,147.738,153.7356,151.4875,201.189,195.8012,181.8927,166.6901,0.1868,,1.7760,2.5119,-99.0,,-99.0,-99.0,25.5394,,25.5550,,0.8361,81.1417,,7.956,,2.0706E+03,,7.3062E-01,,12.1935,12.1037,0.0672,,55.835,75.889,,,,,,,,,,,,
CalCOFI,2007SR,071,,2007_071d,26-Jul-2020 22:55:08,26-Jul-2020 14:55:08,34.27542,-120.02522,081.8 046.9,081.8,046.9,27.000,27.196,,11.4444,,11.3713,,11.4079,33.7175,,33.7177,33.7241,,33.7257,33.7217,3.3497,,3.4824,3.4409,4.6373,,7.1294,4.4391,3.9400,145.851,151.7658,149.5472,201.907,191.1859,182.9874,166.2673,0.1023,,0.7784,1.1870,-99.0,,-99.0,-99.0,25.6969,,25.7154,,0.7508,82.8877,,7.918,,2.0707E+03,,6.8833E-01,,11.4410,11.3680,0.0696,,54.269,75.014,,,,,,,,,,,,
CalCOFI,2007SR,071,,2007_071d,26-Jul-2020 22:55:11,26-Jul-2020 14:55:11,34.27542,-120.02522,081.8 046.9,081.8,046.9,28.000,28.204,,11.2521,,11.2370,,11.2446,33.7334,,33.7336,33.7364,,33.7380,33.7358,3.3117,,3.4427,3.4018,4.5886,,7.0132,4.3596,3.8807,144.188,150.0298,147.8372,199.781,187.1184,179.7460,163.7916,0.0842,,0.5653,0.8849,-99.0,,-99.0,-99.0,25.7444,,25.7495,,0.7188,83.5529,,7.908,,2.0711E+03,,6.5290E-01,,11.2487,11.2335,0.0719,,53.439,74.021,,,,,,,,,,,,
CalCOFI,2007SR,071,,2007_071d,26-Jul-2020 22:55:13,26-Jul-2020 14:55:13,34.27542,-120.02522,081.8 046.9,081.8,046.9,29.000,29.211,,11.1694,,11.1483,,11.1589,33.7394,,33.7396,33.7427,,33.7443,33.7420,3.2902,,3.4202,3.3796,4.5368,,6.8895,4.2750,3.8273,143.250,149.0506,146.8727,197.522,184.8242,176.3017,161.5872,0.0788,,0.5018,0.7935,-99.0,,-99.0,-99.0,25.7641,,25.7705,,0.7104,83.7283,,7.902,,2.0716E+03,,6.3240E-01,,11.1658,11.1448,0.0741,,53.001,73.050,,,,,,,,,,,,
CalCOFI,2007SR,071,,2007_071d,26-Jul-2020 22:55:15,26-Jul-2020 14:55:15,34.27542,-120.02522,081.8 046.9,081.8,046.9,30.000,30.219,,11.1108,,11.0980,,11.1044,33.7462,,33.7464,33.7494,,33.7510,33.7487,3.2831,,3.4128,3.3723,4.4854,,6.7668,4.1911,3.7817,142.940,148.7270,146.5539,195.285,184.0660,172.8909,159.7224,0.0717,,0.4183,0.6724,-99.0,,-99.0,-99.0,25.7800,,25.7848,,0.7026,83.8908,,7.898,,2.0721E+03,,6.2059E-01,,11.1072,11.0943,0.0764,,52.823,72.149,30,11.025,33.7505,,145.02,0.604,0.351,16.90,0.056,0.00,1.42,17.69
CalCOFI,2007SR,071,,2007_071d,26-Jul-2020 22:55:16,26-Jul-2020 14:55:16,34.27542,-120.02522,081.8 046.9,081.8,046.9,31.000,31.226,,11.0917,,11.0846,,11.0882,33.7497,,33.7499,33.7528,,33.7544,33.7522,3.2772,,3.4066,3.3662,4.4379,,6.6534,4.1136,3.7399,142.681,148.4566,146.2876,193.214,183.4325,169.7333,158.0105,0.0711,,0.4112,0.6622,-99.0,,-99.0,-99.0,25.7861,,25.7899,,0.7035,83.8729,,7.897,,2.0699E+03,,6.0408E-01,,11.0879,11.0808,0.0786,,52.708,71.366,,,,,,,,,,,,
CalCOFI,2007SR,071,,2007_071d,26-Jul-2020 22:55:18,26-Jul-2020 14:55:18,34.27542,-120.02522,081.8 046.9,081.8,046.9,32.000,32.233,,11.0846,,11.0804,,11.0825,33.7522,,33.7524,33.7551,,33.7567,33.7546,3.2714,,3.4006,3.3602,4.3892,,6.5371,4.0341,3.6972,142.430,148.1946,146.0295,191.092,182.8186,166.4979,156.2637,0.0721,,0.4230,0.6793,-99.0,,-99.0,-99.0,25.7894,,25.7924,,0.7007,83.9313,,7.897,,2.0693E+03,,5.9029E-01,,11.0807,11.0765,0.0808,,52.608,70.577,,,,,,,,,,,,
CalCOFI,2007SR,071,,2007_071d,26-Jul-2020 22:55:20,26-Jul-2020 14:55:20,34.27542,-120.02522,081.8 046.9,081.8,046.9,33.000,33.241,,11.0818,,11.0762,,11.0790,33.7542,,33.7544,33.7571,,33.7587,33.7566,3.2679,,3.3969,3.3566,4.3354,,6.4087,3.9463,3.6515,142.274,148.0317,145.8691,188.752,182.4370,162.9301,154.3996,0.0721,,0.4230,0.6793,-99.0,,-99.0,-99.0,25.7915,,25.7947,,0.6987,83.9735,,7.896,,2.0706E+03,,5.7677E-01,,11.0778,11.0722,0.0830,,52.548,69.708,,,,,,,,,,,,
CalCOFI,2007SR,071,,2007_071d,26-Jul-2020 22:55:23,26-Jul-2020 14:55:23,34.27542,-120.02522,081.8 046.9,081.8,046.9,34.000,34.248,,11.0814,,11.0765,,11.0790,33.7555,,33.7557,33.7581,,33.7597,33.7577,3.2624,,3.3912,3.3509,4.2880,,6.2955,3.8689,3.6099,142.034,147.7812,145.6223,186.685,181.8500,159.7786,152.7005,0.0760,,0.4689,0.7459,-99.0,,-99.0,-99.0,25.7926,,25.7955,,0.6992,83.9634,,7.895,,2.0684E+03,,5.5229E-01,,11.0772,11.0724,0.0853,,52.459,68.945,,,,,,,,,,,,
CalCOFI,2007SR,071,,2007_071d,26-Jul-2020 22:55:25,26-Jul-2020 14:55:25,34.27542,-120.02522,081.8 046.9,081.8,046.9,35.000,35.255,,11.0816,,11.0768,,11.0792,33.7562,,33.7564,33.7587,,33.7603,33.7584,3.2555,,3.3840,3.3438,4.2469,,6.1974,3.8018,3.5728,141.733,147.4670,145.3128,184.896,181.1138,157.0509,151.1819,0.0721,,0.4230,0.6793,-99.0,,-99.0,-99.0,25.7931,,25.7959,,0.7000,83.9452,,7.893,,2.0693E+03,,5.2198E-01,,11.0773,11.0725,0.0875,,52.349,68.285,,,,,,,,,,,,
CalCOFI,2007SR,071,,2007_071d,26-Jul-2020 22:55:26,26-Jul-2020 14:55:26,34.27542,-120.02522,081.8 046.9,081.8,046.9,36.000,36.263,,11.0770,,11.0727,,11.0749,33.7567,,33.7569,33.7591,,33.7607,33.7588,3.2536,,3.3820,3.3419,4.2127,,6.1158,3.7460,3.5440,141.653,147.3835,145.2305,183.407,180.9182,154.7807,150.0056,0.0694,,0.3912,0.6330,-99.0,,-99.0,-99.0,25.7944,,25.7970,,0.6976,83.9951,,7.892,,2.0713E+03,,4.9923E-01,,11.0726,11.0683,0.0897,,52.314,67.730,,,,,,,,,,,,
CalCOFI,2007SR,071,,2007_071d,26-Jul-2020 22:55:28,26-Jul-2020 14:55:28,34.27542,-120.02522,081.8 046.9,081.8,046.9,37.000,37.270,,11.0691,,11.0650,,11.0671,33.7573,,33.7575,33.7599,,33.7615,33.7595,3.2382,,3.3659,3.3260,4.1783,,6.0337,3.6899,3.5080,140.983,146.6841,144.5416,181.912,179.2794,152.5013,148.5215,0.0728,,0.4312,0.6913,-99.0,,-99.0,-99.0,25.7963,,25.7991,,0.6980,83.9870,,7.892,,2.0699E+03,,4.7508E-01,,11.0646,11.0605,0.0919,,52.058,67.167,,,,,,,,,,,,
CalCOFI,2007SR,071,,2007_071d,26-Jul-2020 22:55:31,26-Jul-2020 14:55:31,34.27542,-120.02522,081.8 046.9,081.8,046.9,38.000,38.278,,11.0536,,11.0458,,11.0497,33.7583,,33.7585,33.7609,,33.7625,33.7605,3.2093,,3.3357,3.2962,4.1434,,5.9503,3.6329,3.4646,139.723,145.3687,143.2460,180.390,176.1977,150.1807,146.7134,0.0686,,0.3818,0.6193,-99.0,,-99.0,-99.0,25.7998,,25.8033,,0.6984,83.9801,,7.890,,2.0714E+03,,4.5260E-01,,11.0489,11.0412,0.0941,,51.577,66.579,,,,,,,,,,,,
CalCOFI,2007SR,071,,2007_071d,26-Jul-2020 22:55:33,26-Jul-2020 14:55:33,34.27542,-120.02522,081.8 046.9,081.8,046.9,39.000,39.285,,11.0281,,11.0190,,11.0236,33.7596,,33.7598,33.7620,,33.7636,33.7617,3.1820,,3.3072,3.2680,4.1179,,5.8895,3.5913,3.4297,138.534,144.1275,142.0234,179.280,173.2895,148.4883,145.2559,0.0673,,0.3665,0.5969,-99.0,,-99.0,-99.0,25.8054,,25.8089,,0.6976,83.9956,,7.888,,2.0712E+03,,4.3178E-01,,11.0233,11.0142,0.0963,,51.110,66.132,,,,,,,,,,,,
CalCOFI,2007SR,071,,2007_071d,26-Jul-2020 22:55:34,26-Jul-2020 14:55:34,34.27542,-120.02522,081.8 046.9,081.8,046.9,40.000,40.292,,10.9753,,10.9650,,10.9702,33.7618,,33.7620,33.7643,,33.7659,33.7640,3.1469,,3.2705,3.2318,4.1008,,5.8486,3.5634,3.3976,137.003,142.5293,140.4491,178.532,169.5449,147.3478,143.8985,0.0744,,0.4500,0.7186,-99.0,,-99.0,-99.0,25.8166,,25.8204,,0.6965,84.0195,,7.883,,2.0674E+03,,4.1043E-01,,10.9705,10.9601,0.0985,,50.490,65.782,40,10.754,33.7830,,137.09,0.225,0.197,19.32,0.043,0.00,1.57,20.50
CalCOFI,2007SR,071,,2007_071d,26-Jul-2020 22:55:37,26-Jul-2020 14:55:37,34.27542,-120.02522,081.8 046.9,081.8,046.9,41.000,41.300,,10.9190,,10.9037,,10.9114,33.7663,,33.7665,33.7703,,33.7719,33.7692,3.1009,,3.2224,3.1844,4.0755,,5.7882,3.5221,3.3533,134.998,140.4363,138.3875,177.427,164.6410,145.6630,142.0253,0.0663,,0.3548,0.5797,-99.0,,-99.0,-99.0,25.8302,,25.8360,,0.6967,84.0141,,7.878,,2.0692E+03,,3.9597E-01,,10.9140,10.8988,0.1007,,49.694,65.292,,,,,,,,,,,,
CalCOFI,2007SR,071,,2007_071d,26-Jul-2020 22:55:39,26-Jul-2020 14:55:39,34.27542,-120.02522,081.8 046.9,081.8,046.9,42.000,42.307,,10.8489,,10.8380,,10.8435,33.7754,,33.7756,33.7785,,33.7801,33.7779,3.0788,,3.1993,3.1616,4.0547,,5.7386,3.4881,3.3249,134.033,139.4289,137.3952,176.521,162.2807,144.2816,140.8384,0.0596,,0.2760,0.4639,-99.0,,-99.0,-99.0,25.8497,,25.8541,,0.6970,84.0091,,7.873,,2.0735E+03,,3.7900E-01,,10.8439,10.8329,0.1029,,49.268,64.872,,,,,,,,,,,,
CalCOFI,2007SR,071,,2007_071d,26-Jul-2020 22:55:40,26-Jul-2020 14:55:40,34.27542,-120.02522,081.8 046.9,081.8,046.9,43.000,43.315,,10.8180,,10.8109,,10.8145,33.7783,,33.7785,33.7809,,33.7825,33.7805,3.0634,,3.1832,3.1458,4.0376,,5.6978,3.4602,3.3030,133.364,138.7306,136.7073,175.773,160.6444,143.1412,139.9243,0.0558,,0.2314,0.3978,-99.0,,-99.0,-99.0,25.8575,,25.8608,,0.6960,84.0299,,7.870,,2.0703E+03,,3.6612E-01,,10.8128,10.8057,0.1051,,48.991,64.561,,,,,,,,,,,,
CalCOFI,2007SR,071,,2007_071d,26-Jul-2020 22:55:42,26-Jul-2020 14:55:42,34.27542,-120.02522,081.8 046.9,081.8,046.9,44.000,44.322,,10.7929,,10.7872,,10.7901,33.7815,,33.7817,33.7842,,33.7858,33.7838,3.0552,,3.1747,3.1373,4.0016,,5.6118,3.4015,3.2694,133.004,138.3548,136.3371,174.207,159.7639,140.7535,138.5453,0.0594,,0.2737,0.4604,-99.0,,-99.0,-99.0,25.8644,,25.8675,,0.6975,83.9976,,7.866,,2.0689E+03,,3.5088E-01,,10.7876,10.7819,0.1072,,48.834,63.955,,,,,,,,,,,,
CalCOFI,2007SR,071,,2007_071d,26-Jul-2020 22:55:45,26-Jul-2020 14:55:45,34.27542,-120.02522,081.8 046.9,081.8,046.9,45.000,45.329,,10.7794,,10.7748,,10.7771,33.7834,,33.7836,33.7859,,33.7875,33.7856,3.0512,,3.1705,3.1332,3.9783,,5.5562,3.3634,3.2483,132.829,138.1721,136.1572,173.192,159.3359,139.2059,137.6816,0.0541,,0.2114,0.3681,-99.0,,-99.0,-99.0,25.8683,,25.8711,,0.6985,83.9758,,7.865,,2.0729E+03,,3.3278E-01,,10.7740,10.7694,0.1094,,48.756,63.567,,,,,,,,,,,,
CalCOFI,2007SR,071,,2007_071d,26-Jul-2020 22:55:46,26-Jul-2020 14:55:46,34.27542,-120.02522,081.8 046.9,081.8,046.9,46.000,46.337,,10.7708,,10.7665,,10.7687,33.7842,,33.7844,33.7866,,33.7882,33.7863,3.0409,,3.1597,3.1226,3.9577,,5.5070,3.3298,3.2262,132.380,137.7034,135.6955,172.294,158.2377,137.8368,136.7662,0.0558,,0.2314,0.3978,-99.0,,-99.0,-99.0,25.8705,,25.8731,,0.6992,83.9613,,7.864,,2.0719E+03,,3.1922E-01,,10.7652,10.7610,0.1115,,48.583,63.226,,,,,,,,,,,,
CalCOFI,2007SR,071,,2007_071d,26-Jul-2020 22:55:49,26-Jul-2020 14:55:49,34.27542,-120.02522,081.8 046.9,081.8,046.9,47.000,47.344,,10.7585,,10.7544,,10.7565,33.7855,,33.7857,33.7880,,33.7896,33.7877,3.0102,,3.1277,3.0909,3.9333,,5.4488,3.2900,3.1905,131.043,136.3077,134.3207,171.229,154.9676,136.2130,135.2669,0.0546,,0.2173,0.3769,-99.0,,-99.0,-99.0,25.8737,,25.8763,,0.6993,83.9599,,7.862,,2.0728E+03,,3.0904E-01,,10.7529,10.7487,0.1137,,48.080,62.820,,,,,,,,,,,,
CalCOFI,2007SR,071,,2007_071d,26-Jul-2020 22:55:51,26-Jul-2020 14:55:51,34.27542,-120.02522,081.8 046.9,081.8,046.9,48.000,48.352,,10.7384,,10.7309,,10.7347,33.7873,,33.7875,33.7895,,33.7911,33.7893,2.9762,,3.0921,3.0559,3.9166,,5.4089,3.2627,3.1593,129.566,134.7658,132.8019,170.503,151.3551,135.1061,133.9540,0.0540,,0.2102,0.3664,-99.0,,-99.0,-99.0,25.8786,,25.8817,,0.7001,83.9436,,7.860,,2.0718E+03,,3.0056E-01,,10.7327,10.7252,0.1158,,47.518,62.523,,,,,,,,,,,,
CalCOFI,2007SR,071,,2007_071d,26-Jul-2020 22:55:52,26-Jul-2020 14:55:52,34.27542,-120.02522,081.8 046.9,081.8,046.9,49.000,49.359,,10.6815,,10.6713,,10.6764,33.7922,,33.7924,33.7948,,33.7964,33.7944,2.9524,,3.0673,3.0313,3.9042,,5.3793,3.2425,3.1369,128.528,133.6823,131.7346,169.960,148.8163,134.2782,133.0064,0.0484,,0.1444,0.2683,-99.0,,-99.0,-99.0,25.8925,,25.8963,,0.7009,83.9279,,7.856,,2.0715E+03,,2.9116E-01,,10.6757,10.6654,0.1179,,47.082,62.247,,,,,,,,,,,,
CalCOFI,2007SR,071,,2007_071d,26-Jul-2020 22:55:55,26-Jul-2020 14:55:55,34.27542,-120.02522,081.8 046.9,081.8,046.9,50.000,50.367,,10.6034,,10.5951,,10.5993,33.7991,,33.7993,33.8013,,33.8029,33.8011,2.9362,,3.0503,3.0146,3.8859,,5.3356,3.2126,3.1136,127.817,132.9401,131.0035,169.159,147.0773,133.0569,132.0302,0.0496,,0.1585,0.2893,-99.0,,-99.0,-99.0,25.9116,,25.9147,,0.6990,83.9674,,7.852,,2.0714E+03,,2.8154E-01,,10.5975,10.5892,0.1201,,46.746,61.856,50,10.517,33.8129,3.326,145.17,0.127,0.135,20.69,0.037,0.00,1.67,22.38